Satellite-Ground Cal/Val Region Overpasses Predictions

Prediction of Satellite NPP Overpassing Cal/Val Region: PacNW

Region Location: (Latitude: 10.00, Longitude: 139.50) to (Latitude: 22.70, Longitude: 165.60).

Table of predicted overpasses for the next 14.0 days since TLE Epoch: 12/23/2023
Interval Starting Time Starting Location Ending Time Ending Location
1 12/23/2023 03:05:03 ( 10.05, 153.55) 12/23/2023 03:08:38 ( 22.68, 150.55)
2 12/23/2023 15:36:55 ( 22.69, 150.79) 12/23/2023 15:40:31 ( 10.01, 147.78)
3 12/24/2023 02:46:01 ( 10.02, 158.31) 12/24/2023 02:49:36 ( 22.64, 155.31)
4 12/24/2023 15:17:55 ( 22.66, 155.54) 12/24/2023 15:21:30 ( 10.04, 152.54)
5 12/25/2023 02:27:01 ( 10.05, 163.06) 12/25/2023 02:30:36 ( 22.67, 160.06)
6 12/25/2023 14:58:53 ( 22.69, 160.30) 12/25/2023 15:02:29 ( 10.01, 157.29)
7 12/26/2023 02:10:41 ( 19.53, 165.59) 12/26/2023 02:11:35 ( 22.70, 164.81)
8 12/26/2023 03:49:29 ( 10.02, 142.45) 12/26/2023 03:53:00 ( 22.40, 139.50)
9 12/26/2023 14:39:53 ( 22.66, 165.05) 12/26/2023 14:43:28 ( 10.04, 162.05)
10 12/26/2023 16:21:23 ( 22.66, 139.67) 12/26/2023 16:21:34 ( 22.02, 139.51)
11 12/27/2023 03:30:29 ( 10.05, 147.19) 12/27/2023 03:34:04 ( 22.67, 144.19)
12 12/27/2023 16:02:21 ( 22.69, 144.43) 12/27/2023 16:05:57 ( 10.01, 141.42)
13 12/28/2023 03:11:27 ( 10.02, 151.95) 12/28/2023 03:15:03 ( 22.70, 148.94)
14 12/28/2023 15:43:21 ( 22.66, 149.18) 12/28/2023 15:46:56 ( 10.04, 146.18)
15 12/29/2023 02:52:27 ( 10.05, 156.70) 12/29/2023 02:56:02 ( 22.67, 153.70)
16 12/29/2023 15:24:20 ( 22.69, 153.94) 12/29/2023 15:27:56 ( 10.01, 150.92)
17 12/30/2023 02:33:25 ( 10.02, 161.46) 12/30/2023 02:37:00 ( 22.65, 158.46)
18 12/30/2023 15:05:19 ( 22.65, 158.68) 12/30/2023 15:08:54 ( 10.03, 155.68)
19 12/31/2023 02:15:10 ( 12.70, 165.60) 12/31/2023 02:18:00 ( 22.68, 163.20)
20 12/31/2023 03:55:54 ( 10.00, 140.84) 12/31/2023 03:57:32 ( 15.76, 139.51)
21 12/31/2023 14:46:18 ( 22.68, 163.44) 12/31/2023 14:49:53 ( 10.06, 160.44)
22 01/01/2024 03:36:53 ( 10.04, 145.59) 01/01/2024 03:40:28 ( 22.66, 142.59)
23 01/01/2024 14:30:22 ( 11.78, 165.59) 01/01/2024 14:30:52 ( 10.02, 165.19)
24 01/01/2024 16:08:46 ( 22.70, 142.83) 01/01/2024 16:12:22 ( 10.02, 139.81)
25 01/02/2024 03:17:52 ( 10.02, 150.35) 01/02/2024 03:21:27 ( 22.64, 147.35)
26 01/02/2024 15:49:46 ( 22.66, 147.57) 01/02/2024 15:53:21 ( 10.04, 144.57)
27 01/03/2024 02:58:51 ( 10.06, 155.09) 01/03/2024 03:02:26 ( 22.68, 152.09)
28 01/03/2024 15:30:44 ( 22.68, 152.33) 01/03/2024 15:34:20 ( 10.00, 149.32)
29 01/04/2024 02:39:50 ( 10.04, 159.85) 01/04/2024 02:43:25 ( 22.66, 156.85)
30 01/04/2024 15:11:43 ( 22.70, 157.09) 01/04/2024 15:15:19 ( 10.02, 154.07)
31 01/05/2024 02:20:48 ( 10.02, 164.61) 01/05/2024 02:24:23 ( 22.65, 161.61)
